Location: Raitis
(47.2167°N, 11.3833°E)
Time: 01:15:11
(UTC+00:00)

Helios 1A Rocket - Pass Details

Date: 03 March 2021
Orbit: 564 x 584 km, 98.3° (Epoch: 21 April)

Event Time Altitude Azimuth Distance (km) Brightness Sun altitude
Rises 17:37:06 0° 144° (SE) 2,768 6.1 -6.6°
Reaches altitude 10° 17:39:20 10° 137° (SE) 1,872 5.1 -7.0°
Maximum altitude 17:43:06 38° 69° (ENE) 885 3.4 -7.6°
Drops below altitude 10° 17:46:51 10° 1° (N) 1,876 5.5 -8.3°
Sets 17:49:05 0° 353° (N) 2,775 6.5 -8.7°
